Grand Marais, MN

11:10 AM CDT on July 22, 2017 (GMT -0500)
Grand Marais

Weather History for KGNA - March, 2013

Change the Weather History Date:

Wednesday, March 13, 2013

  Actual Average (KCKC) Record (KCKC)
Temperature  
Mean Temperature 24 °F -  
Max Temperature 36 °F 27 °F 57 °F (2007)
Min Temperature 12 °F 10 °F -11 °F (2003)
Degree Days  
Heating Degree Days 41    
Moisture  
Dew Point 6 °F    
Average Humidity 47    
Maximum Humidity 71    
Minimum Humidity 36    
Precipitation  
Precipitation 0.00 in - - ()
Sea Level Pressure  
Sea Level Pressure 30.25 in    
Wind  
Wind Speed 7 mph (NNW)    
Max Wind Speed 21 mph    
Max Gust Speed 36 mph    
Averages and records for this station are not official NWS values.
T = Trace of Precipitation, MM = Missing Value Source: NWS Daily Summary

Daily Weather History Graph

Daily Weather History Graph

Search for Another Location

Airport or City:

Trip Planner

Search our weather history database for the weather conditions in past years. The results will help you decide how hot, cold, wet, or windy it might be!

Date:

Astronomy

Mar. 13, 2013 Rise Set
Actual Time 7:17 AM CDT 7:04 PM CDT
Civil Twilight 6:47 AM CDT 7:35 PM CDT
Nautical Twilight 6:11 AM CDT 8:11 PM CDT
Astronomical Twilight 5:34 AM CDT 8:47 PM CDT
Moon 7:46 AM CDT (3/13) 9:34 PM CDT (3/13)
Length of Visible Light 12h 47m
Length of Day
11h 46m
Waxing Crescent, 4% of the Moon is Illuminated
Mar 13
Waxing Crescent
Mar 19
First Quarter
Mar 27
Full
Apr 2
Last Quarter
Apr 10
New

Hourly Weather History & Observations

Time (CDT) Temp. Windchill Dew Point Humidity Pressure Visibility Wind Dir Wind Speed Gust Speed Precip Events Conditions
12:56 AM 19.9 °F 3.9 °F 1.9 °F 46% 30.09 in - North 20.7 mph 34.5 mph N/A   Unknown
1:56 AM 19.0 °F 4.5 °F 1.9 °F 47% 30.10 in - North 16.1 mph 35.7 mph N/A   Unknown
2:56 AM 18.0 °F 12.7 °F -0.0 °F 45% 30.16 in - Variable 3.5 mph - N/A   Unknown
3:56 AM 18.0 °F - -0.9 °F 44% 30.19 in - Calm Calm - N/A   Unknown
4:56 AM 17.1 °F - -0.0 °F 47% 30.21 in - Calm Calm - N/A   Unknown
5:56 AM 17.1 °F - -0.0 °F 47% 30.23 in - Calm Calm - N/A   Unknown
6:56 AM 15.1 °F - -0.9 °F 49% 30.24 in - Calm Calm - N/A   Unknown
7:56 AM 12.0 °F - -0.0 °F 59% 30.26 in - Calm Calm - N/A   Unknown
8:56 AM 19.0 °F - -0.0 °F 43% 30.28 in - Calm Calm - N/A   Unknown
9:56 AM 23.0 °F 17.0 °F 1.9 °F 40% 30.30 in - Variable 4.6 mph - N/A   Unknown
10:56 AM 26.1 °F 21.9 °F 3.0 °F 37% 30.30 in - Variable 3.5 mph - N/A   Unknown
11:56 AM 30.0 °F 26.5 °F 6.1 °F 36% 30.30 in - Variable 3.5 mph - N/A   Unknown
12:56 PM 32.0 °F 28.7 °F 10.0 °F 40% 30.28 in - Variable 3.5 mph - N/A   Unknown
1:56 PM 34.0 °F 26.6 °F 10.0 °F 37% 30.28 in - NNW 9.2 mph - N/A   Unknown
2:56 PM 35.1 °F 27.9 °F 10.9 °F 37% 30.27 in - NW 9.2 mph 16.1 mph N/A   Unknown
3:56 PM 35.1 °F 28.6 °F 12.0 °F 39% 30.26 in - NW 8.1 mph - N/A   Unknown
4:56 PM 36.0 °F 33.3 °F 10.9 °F 36% 30.26 in - Variable 3.5 mph - N/A   Unknown
5:56 PM 34.0 °F 28.0 °F 12.0 °F 40% 30.27 in - NNW 6.9 mph - N/A   Unknown
6:56 PM 30.9 °F - 12.0 °F 46% 30.27 in - Calm Calm - N/A   Unknown
7:56 PM 26.1 °F - 14.0 °F 60% 30.28 in - Calm Calm - N/A   Unknown
8:56 PM 24.1 °F - 12.0 °F 60% 30.28 in - Calm Calm - N/A   Unknown
9:56 PM 19.9 °F 14.9 °F 12.0 °F 71% 30.28 in - NW 3.5 mph - N/A   Unknown
10:56 PM 21.9 °F - 12.0 °F 66% 30.27 in - Calm Calm - N/A   Unknown
11:56 PM 23.0 °F - 10.9 °F 60% 30.26 in - Calm Calm - N/A   Unknown